Location: Unspecified
(50.7693°N, 0.0000°E)
Time: 13:54:50
(UTC+00:00)

Vanguard 1 - All Passes

Search period start: 26 June 2019 00:00
Search period end: 06 July 2019 00:00
Orbit: 654 x 3830 km, 34.2° (Epoch: 24 June)

Date Brightness Start Highest point End Pass type
(mag) Time Alt. Az. Time Alt. Az. Time Alt. Az.
26 Jun - 00:08:13 10° SSW 00:23:53 26° SSE 00:35:30 10° ESE visible
26 Jun - 02:29:29 10° SW 02:46:12 37° S 02:56:36 10° ESE visible
26 Jun - 04:54:30 10° WSW 05:07:18 33° SSW 05:15:07 10° SE daylight
26 Jun - 07:21:37 10° WSW 07:26:16 14° SW 07:29:59 10° SSW daylight
26 Jun - 22:13:53 10° SSE 22:22:32 14° SE 22:30:20 10° ESE visible
27 Jun - 00:27:34 10° SSW 00:44:43 30° SSE 00:57:00 10° ESE visible
27 Jun - 02:50:11 10° WSW 03:07:04 39° S 03:17:25 10° ESE visible
27 Jun - 05:15:48 10° WSW 05:27:54 30° SSW 05:35:25 10° SSE daylight
27 Jun - 22:30:08 10° S 22:43:08 19° SE 22:54:14 10° ESE visible
28 Jun - 00:47:23 10° SW 01:05:37 35° SSE 01:18:14 10° ESE visible
28 Jun - 03:11:05 10° WSW 03:27:55 40° S 03:38:07 10° ESE daylight
28 Jun - 05:37:13 10° WSW 05:48:23 27° SSW 05:55:34 10° SSE daylight
28 Jun - 22:48:06 10° S 23:03:47 24° SE 23:16:41 10° E visible
29 Jun - 01:07:35 10° SW 01:26:31 38° SSE 01:39:17 10° ESE visible
29 Jun - 03:32:09 10° WSW 03:48:43 39° S 03:58:43 10° SE daylight
29 Jun - 05:58:52 10° W 06:08:45 23° SW 06:15:26 10° S daylight
29 Jun - 21:00:36 10° SE 21:02:41 10° SE 21:04:45 10° SE visible
29 Jun - 23:06:58 10° SSW 23:24:30 29° SSE 23:38:31 10° E visible
30 Jun - 01:28:04 10° SW 01:47:26 41° S 02:00:13 10° ESE visible
30 Jun - 03:53:21 10° WSW 04:09:26 38° SSW 04:19:13 10° SE daylight
30 Jun - 06:20:51 10° WSW 06:28:59 18° SW 06:34:53 10° S daylight
30 Jun - 21:12:21 10° SSE 21:23:03 15° SE 21:33:04 10° ESE visible
30 Jun - 23:26:24 10° SSW 23:45:17 34° SSE 23:59:58 10° E visible
01 Jul - 01:48:48 10° WSW 02:08:21 43° S 02:21:03 10° ESE visible
01 Jul - 04:14:40 10° W 04:30:04 35° SSW 04:39:34 10° SE daylight
01 Jul - 06:43:32 10° WSW 06:49:06 14° SW 06:53:33 10° SSW daylight
01 Jul - 21:29:13 10° S 21:43:29 21° SE 21:56:33 10° E visible
01 Jul - 23:46:18 10° SW 00:06:08 38° SSE 00:21:13 10° E visible
02 Jul - 02:09:43 10° WSW 02:29:15 44° S 02:41:46 10° ESE visible
02 Jul - 04:36:08 10° W 04:50:34 31° SSW 04:59:44 10° SSE daylight
02 Jul - 21:47:27 10° S 22:03:59 26° SE 22:18:55 10° E visible
03 Jul - 00:06:31 10° SW 00:27:02 42° SSE 00:42:17 10° ESE visible
03 Jul - 02:30:48 10° WSW 02:50:06 43° S 03:02:24 10° SE visible
03 Jul - 04:57:45 10° W 05:10:57 27° SW 05:19:38 10° SSE daylight
03 Jul - 19:58:22 10° SE 20:03:07 11° SE 20:07:52 10° ESE daylight
03 Jul - 22:06:28 10° SSW 22:24:36 31° SSE 22:40:43 10° E visible
04 Jul - 00:27:02 10° SW 00:47:58 45° S 01:03:15 10° ESE visible
04 Jul - 02:52:00 10° WSW 03:10:52 42° SSW 03:22:54 10° SE visible
04 Jul - 05:19:39 10° W 05:31:12 22° SW 05:39:13 10° S daylight
04 Jul - 20:12:08 10° SSE 20:23:17 16° SE 20:34:27 10° E daylight
04 Jul - 22:25:59 10° SSW 22:45:18 36° SSE 23:02:12 10° E visible
05 Jul - 00:47:45 10° WSW 01:08:54 46° S 01:24:07 10° ESE visible
05 Jul - 03:13:19 10° W 03:31:32 39° SSW 03:43:17 10° SE visible
05 Jul - 05:42:02 10° W 05:51:18 18° SW 05:58:14 10° SSW daylight
05 Jul - 20:29:20 10° S 20:43:33 21° SE 20:57:50 10° E visible
05 Jul - 22:45:55 10° SW 23:06:05 40° SSE 23:23:28 10° E visible
